Location: Glen Avon
(34.0117°N, 117.4848°W)
Time: 14:42:00
(UTC+00:00)

Cosmos 1184 Rocket - Pass Details

Date: 01 August 2021
Orbit: 399 x 410 km, 81.2° (Epoch: 18 September)

Event Time Altitude Azimuth Distance (km) Brightness Sun altitude
Rises 12:00:07 0° 340° (NNW) 2,330 6.7 -12.2°
Reaches altitude 10° 12:02:16 10° 330° (NNW) 1,468 5.5 -11.8°
Maximum altitude 12:05:08 31° 266° (W) 740 3.5 -11.3°
Enters shadow 12:07:38 12° 205° (SSW) 1,329 4.8 -10.9°
